Terminal Aerodrome Forecast
Issued by NWS

Home | Current Version | Previous Version | Text Only | Print | Product List | Glossary Off
Versions: 1 2 3 4 5 6 7 8 9 10 11 12 13 14 15 16 17 18 19 20 21 22 23 24 25 26 27

901
FTUS43 KABR 212328 AAD
TAFMBG
TAF AMD
KMBG 212328Z 2123/2218 VRB06KT P6SM SKC
     FM220200 36010KT P6SM FEW250
     FM221400 04012KT P6SM BKN060
     FM221500 04012KT P6SM BKN025=

USA.gov is the U.S. government's official web portal to all federal, state and local government web resources and services.